Regional Weather Roundup
Issued by NWS

Home | Current Version | Previous Version | Graphics & Text | Print | Product List | Glossary Off
Versions: 1 2 3 4 5 6 7 8 9 10 11 12 13 14 15 16 17 18 19 20 21 22 23 24 25 26 27 28 29 30 31 32 33 34 35 36 37 38 39 40 41 42 43 44 45 46 47 48 49 50

000
ASUS43 KMKX 310721
RWRWI

WISCONSIN REGIONAL WEATHER ROUNDUP
NATIONAL WEATHER SERVICE MILWAUKEE/SULLIVAN WI
200 AM CDT FRI OCT 31 2014

NOTE: "FAIR" INDICATES FEW OR NO CLOUDS BELOW 12,000 FEET WITH NO
SIGNIFICANT WEATHER AND/OR OBSTRUCTIONS TO VISIBILITY.

WIZ001-002-006>008-014>016-023>028-310800-
NORTHWEST WISCONSIN

CITY           SKY/WX    TMP DP  RH WIND       PRES   REMARKS
SUPERIOR ARPT  CLOUDY    31  18  59 N15G22    30.44R WCI  20
ASHLAND        CLOUDY    31  21  66 N17       30.35R WCI  19
HAYWARD        FLURRIES  30  21  69 N13G22    30.33R WCI  20
SIREN          PTCLDY    29  17  59 N15G22    30.39R WCI  18
CUMBERLAND     CLOUDY    30  19  64 N15G29    30.33R WCI  19
RICE LAKE      CLOUDY    30  21  68 N9G21     30.33R WCI  22
CHETEK         PTCLDY    31  22  70 NW9G21    30.31R WCI  22
LADYSMITH      MOCLDY    31  25  76 N21G30    30.27R WCI  19
EAU CLAIRE     MOCLDY    31  20  63 N15G23    30.29R WCI  20
MENOMONIE      PTCLDY    31  19  59 NW18G25   30.33R WCI  19
NEW RICHMOND   CLEAR     29  17  63 N18G25    30.38R WCI  16
OSCEOLA        CLEAR     29  18  62 N9G17     30.42R WCI  21
$$

WIZ003>005-009-010-017-018-310800-
NORTH CENTRAL WISCONSIN

CITY           SKY/WX    TMP DP  RH WIND       PRES   REMARKS
MANITOWISH WTR FLURRIES  28  25  89 N12G18    30.20R WCI  18
ARBOR VITAE    FLURRIES  32  28  85 N17G30    30.17R WCI  21
WOODRUFF       FLURRIES  32  28  85 N17G30    30.17R WCI  21
RHINELANDER    LGT SNOW  29  26  89 N12G29    30.14R FOG     WCI  19
EAGLE RIVER    LGT SNOW  30  27  90 N14G29    30.14R WCI  19
LAND O LAKES   FLURRIES  31  27  88 N17G25    30.16R WCI  19
PHILLIPS       CLOUDY    29  25  84 N13G22    30.21R WCI  19
TOMAHAWK       CLOUDY    30  26  84 N17G24    30.17R WCI  18
MEDFORD        CLOUDY    30  26  85 N20G30    30.17R WCI  17
MERRILL        SNOW      31  29  94 N14G24    30.14R VSB 1/2 WCI  21
$$

WIZ029-030-035-036-043>047-310800-
CENTRAL WISCONSIN

CITY           SKY/WX    TMP DP  RH WIND       PRES   REMARKS
WAUSAU         SNOW      31  29  92 N18G31    30.12R VSB 1/2 WCI  19
MOSINEE        LGT SNOW  32  30  93 NW17G23   30.12R VSB 1   WCI  21
MARSHFIELD     LGT SNOW  31  27  85 NW26G35   30.16R FOG     WCI  17
STEVENS POINT  LGT SNOW  32  27  84 NW14G25   30.12R WCI  22
WAUPACA        CLOUDY    38  28  67 NW14G24   30.08R WCI  30
WAUTOMA        CLOUDY    36  29  76 NW13G23   30.11R WCI  27
WISC RAPIDS    FLURRIES  34  25  69 NW17G28   30.15R WCI  23
CAMP DOUGLAS   CLOUDY    34  23  64 NW12G29   30.18R WCI  25
$$

WIZ011>013-019>022-031-037>040-048>050-310800-
NORTHEAST WISCONSIN

CITY           SKY/WX    TMP DP  RH WIND       PRES   REMARKS
ANTIGO         FLURRIES  32  30  91 N21G26    30.08R WCI  20
SHAWANO        CLOUDY    39  31  73 NW15      30.06R WCI  31
OCONTO         CLOUDY    38  31  76 NW9G16    30.03R WCI  32
STURGEON BAY   CLOUDY    39  30  70 N22G29    30.00S WCI  29
GREEN BAY      CLOUDY    39  32  76 NW14      30.04R WCI  31
MANITOWOC      CLOUDY    41  33  73 NW21      30.00S
APPLETON       CLOUDY    36  30  80 NW15G25   30.05R WCI  26
CLINTONVILLE   CLOUDY    36  30  80 NW9G22    30.06S WCI  29
OSHKOSH        CLOUDY    39  31  72 NW17G24   30.05R WCI  30
$$

WIZ032>034-041-042-053>061-310800-
SOUTHWEST WISCONSIN

CITY           SKY/WX    TMP DP  RH WIND       PRES   REMARKS
LA CROSSE      MOCLDY    36  18  48 N21G28    30.26R WCI  25
SPARTA         MOCLDY    33  19  57 NW15G26   30.23R WCI  23
VIROQUA        PTCLDY    33  17  53 NW17G30   30.20R WCI  22
BOSCOBEL       CLOUDY    39  23  52 NW12G21   30.20R WCI  32
PRAIRIE DU CHI CLOUDY    39  22  50 NW16G28   30.21R WCI  30
PLATTEVILLE    CLOUDY    41  27  57 NW23G29   30.14R
$$

WIZ056-057-062-063-064-067-068-310800-
SOUTH CENTRAL WISCONSIN

CITY           SKY/WX    TMP DP  RH WIND       PRES   REMARKS
REEDSBURG      CLOUDY    36  24  62 NW16G23   30.14S WCI  26
BARABOO/DELLS  CLOUDY    35  26  68 N16G26    30.13R WCI  25
LONE ROCK      LGT RAIN  41  24  51 N20G29    30.16R
MINERAL POINT  CLOUDY    41  28  60 NW23G37   30.12R
MADISON        LGT RAIN  41  29  62 N21G36    30.10R
MIDDLETON      CLOUDY    41  29  61 NW26G33   30.10R
WATERTOWN      CLOUDY    39  31  72 NW15G25   30.06R WCI  31
MONROE         CLOUDY    41  30  65 NW10G21   30.08R
JANESVILLE     CLOUDY    45  32  61 NW17      30.06R
$$

WIZ051-052-058>065-066-070>072-310800-
SOUTHEAST WISCONSIN

CITY           SKY/WX    TMP DP  RH WIND       PRES   REMARKS
MILWAUKEE      CLOUDY    44  31  60 NW18G25   30.02S
WAUKESHA       CLOUDY    41  32  70 NW15G25   30.03S
MILWAUKEE/TIMM CLOUDY    41  30  65 NW16G24   30.03S
RACINE         CLOUDY    45  32  60 NW15G24   30.03S
BURLINGTON     DRIZZLE   41  32  70 NW14G20   30.03S
KENOSHA        LGT RAIN  44  35  70 NW8       30.02S
FOND DU LAC    CLOUDY    39  30  70 NW17G24   30.05R WCI  30
SHEBOYGAN      CLOUDY    41  30  65 NW20G25   30.01R
WEST BEND      MOCLDY    39  32  75 NW15G23   30.03R WCI  31
JUNEAU         LGT RAIN  38  31  77 NW14G22   30.07R WCI  29
$$

LSZ147-162-310800-
LAKE SUPERIOR

STATION/POSITION TIME  TEMP    WIND        PRES    WAVE
                       AIR SEA DIR/SP/G            HT/PER
                 (UTC) (F)     (DEG/KT/KT) (MB)    (FT/S)
W MID LAKE BUOY  0650   34 44  360/ 25/ 31 1026.2R   8/ 7
DEVILS ISLAND    0700   33     360/ 31/ 37 1029.1R
PORT WING        0600   34     360/ 22/ 29 1028.8R
SAXON HARBOR     0702   37     360/ 24     1026.8R
$$

LMZ867-665-643>646-310800-
LAKE MICHIGAN

STATION/POSITION TIME  TEMP    WIND        PRES    WAVE
                       AIR SEA DIR/SP/G            HT/PER
                 (UTC) (F)     (DEG/KT/KT) (MB)    (FT/S)
CHAMBERS ISLAND  0600   41     310/ 20/ 26 1015.6R
N MID LAKE BUOY  0650   41 51  330/ 23/ 27 1013.5F   3/ 4
NORTHPORT PIER   0600   41     330/ 24/ 29 1014.6R
KEWAUNEE LAKESHO 0600   42     310/ 11/ 18 1014.6R
SHEBOYGAN LAKESH 0700   42 50  310/ 17/ 24 1016.7R
PORT WASHINGTON  0640   44     300/  7/ 18 1016.9S
ATWATER BUOY     0700   45     290/ 21/ 25 1017.2S
MILWAUKEE LAKESH 0700   44     320/ 15/ 22   N/A
S MID LAKE BUOY  0650   46 53  300/ 21/ 25 1015.5F   3/ 4
KENOSHA   LAKESH 0700   45     310/  9/ 13 1016.3S
$$

TC  - TEMPERATURE IN CELSIUS
VSB - VISIBILITY IN STATUTE MILES
WCI - WIND CHILL INDEX
HX  - HEAT INDEX




USA.gov is the U.S. government's official web portal to all federal, state and local government web resources and services.